Terminal Aerodrome Forecast
Issued by NWS

Home | Current Version | Previous Version | Text Only | Print | Product List | Glossary On
Versions: 1 2 3 4 5 6 7 8 9 10 11 12 13 14 15 16 17 18 19 20 21 22
000
FTUS41 KGYX 051123
TAFRKD
TAF
KRKD 051123Z 0512/0612 03012G17KT 6SM -DZ OVC007
     FM051400 05010G20KT P6SM OVC012
     FM051600 05012G20KT P6SM OVC025
     FM060100 03012G20KT 5SM -RA OVC007
      AMD LTD TO CLD VIS AND WIND=

USA.gov is the U.S. government's official web portal to all federal, state and local government web resources and services.